CZ-6A DEB, 54612

Orbit data source: Space-Track

CZ-6A DEB, 54612 is space debris in SSO originally from a launch on Fri, 11 Nov 2022 UTC launched from the Taiyaun Space Center, China (TSC). Debris objects in space refer to the collection of defunct objects orbiting the Earth. Examples of debris include non-operational satellites, rocket bodies, and fragments generated from explosions, collisions, or faulty payload assembly.

Loading next visibility...
Identifier
54612, 2022-151NN
Orbit
SSO
Country
Flag of CNCN / PRC
Related business
Manufacturer
SAST
Mission
Spacecraft
Bus & Motor
Unknown
Mass
Unknown
Launch date (UTC)
2022-11-11 (4 years ago)
Launch vehicle
Unknown
Launch site
Taiyaun Space Center, China (TSC)
Object type
Payload
Rocket body
Debris
Shape & HBR
Unknown shape, 0.2 m
Radar Cross Section
Medium (>0.1 m² and <1 m²)

Expand to show TLE details & history
Last TLE update: 2 days ago

TLE from 2 days ago
0 CZ-6A DEB
1 54612U 22151NN  26170.97293686  .00000514  00000-0  30162-3 0  9990
2 54612  98.8338 170.8084 0049377 343.1070  16.8456 14.11941792184760
Epoch: 2026-06-19T23:21Z
TLE epoch observation values (Epoch: 2026-06-19T23:21:01.744Z)
Latitude
0.00002°
Longitude
-87.64311°
Altitude
821.47 km
Speed
7.46 km/s
True Right ascension
11h 23m 14s
True Declination
0° 00' 00"
Sunlit
Object was in daylight at epoch
Visualization orbit readout
Latitude
Unknown
Longitude
Unknown
Altitude
Unknown
Speed
Unknown
Apparent Right ascension
Unknown
Apparent Declination
Unknown
Sunlit
N/A
Visualization observer readout
Local Sidereal Time
21:33:34
Azimuth
Unknown
Elevation
Unknown
Doppler factor
Unknown
Orbital elements
Apogee altitude
885.6 km
Perigee altitude
814.22 km
Semi-major axis
7,228.047 km
Eccentricity
0.00494
Inclination
98.8338°
RAAN
170.8084°
Arg. of periapsis
343.107°
True anomaly
17.01054°
Mean anomaly
16.8456°
Eccentric anomaly
16.92797°
Mean motion
3.53193 °/min
Orbital period
101.93 mins
BSTAR
0.00030162
Loading maneuver chart data...
Computing Atmospheric mass density...
Loading historical data...
Loading historical data...
Loading historical data...
Loading historical data...
Loading historical data...
Loading historical data...
Loading historical data...

Documentation

Showing up to 5 results
|